Regional Weather Roundup
Issued by NWS Glasgow, MT

Home | Current Version | Previous Version | Text Only | Print | Product List | Glossary On
Versions: 1 2 3 4 5 6 7 8 9 10 11 12 13 14 15 16 17 18 19 20 21 22 23 24 25 26 27 28 29 30 31 32 33 34 35 36 37 38 39 40 41 42 43 44 45 46 47 48 49 50
000
ASUS45 KGGW 270915
RWRGGW
HOURLY REGIONAL WEATHER ROUNDUP FOR NORTHEAST MONTANA
NATIONAL WEATHER SERVICE GLASGOW MONTANA
300 AM MDT THU APR 27 2017

NOTE: "FAIR" INDICATES FEW OR NO CLOUDS BELOW 12,000 FEET WITH NO
SIGNIFICANT WEATHER AND/OR OBSTRUCTIONS TO VISISBILITY.

NORTHEAST MONTANA


CITY           SKY/WX    TMP DP  RH WIND       PRES   REMARKS
GLASGOW        PTCLDY    34  21  59 E17       29.65F
PLENTYWOOD       N/A     30  24  78 E9          N/A
WOLF POINT     CLEAR     30  22  72 E10       29.71
JORDAN           N/A     35  29  78 E8        29.62F
WINNETT          N/A     42  36  79 SE3         N/A
SIDNEY         CLEAR     29  22  75 NE3       29.74S
GLENDIVE       CLEAR     30  24  78 NE10      29.70S
MALTA            N/A     37  30  75 E3          N/A
SCOBEY           N/A     29  16  58 E13       29.71

FORT PECK REPORTS


CITY           SKY/WX    TMP DP  RH WIND       PRES   REMARKS
FORT PECK        N/A     36  28  73 E17         N/A
THE PINES        N/A     36  27  69 CALM        N/A

SOUTHEAST MONTANA


CITY           SKY/WX    TMP DP  RH WIND       PRES   REMARKS
BILLINGS       CLOUDY    41  38  89 SW7       29.57F
MILES CITY     PTCLDY    36  31  82 E6        29.64F
BAKER          CLEAR     28  23  81 E12       29.68F
LIVINGSTON     CLOUDY    38  36  92 W7        29.58F

CENTRAL MONTANA


CITY           SKY/WX    TMP DP  RH WIND       PRES   REMARKS
HAVRE          CLOUDY    41  39  93 E8        29.59S
LEWISTOWN      LGT RAIN  38  36  92 W5        29.58S
GREAT FALLS    CLOUDY    37  35  92 SW9       29.59S
CUT BANK       CLOUDY    38  36  92 E3        29.59S
HELENA         CLOUDY    43  31  62 W12       29.62S
BUTTE          LGT SNOW  34  31  88 NW10      29.65S FOG
BOZEMAN        LGT RAIN  36  34  92 W16       29.63R

WESTERN MONTANA


CITY           SKY/WX    TMP DP  RH WIND       PRES   REMARKS
MISSOULA       CLOUDY    42  36  79 E5        29.72F
KALISPELL      NOT AVBL

NORTH DAKOTA


CITY           SKY/WX    TMP DP  RH WIND       PRES   REMARKS
WILLISTON      CLEAR     31  26  82 NE5       29.76S
DICKINSON      CLEAR     20  19  96 S5        29.71S
MINOT          CLEAR     23  20  88 NW8       29.76F
BISMARCK       PTCLDY    33  25  72 N5        29.75F

SOUTHERN SASKATCHEWAN


CITY           SKY/WX    TMP DP  RH WIND       PRES   REMARKS
REGINA         PTCLDY    28  21  74 SE16      29.80R
ESTEVAN        PTCLDY    27  23  86 E9        29.79F
SWIFT CURRENT  MOCLDY    32  23  69 SE16      29.64S




USA.gov is the U.S. government's official web portal to all federal, state and local government web resources and services.